User: anonymous   Login
Location: Charleston
(38.3500°N, 81.6330°W)
Time: 04:37:45
(UTC-05:00)
Language:

Cosmos 2228 - Orbit

View from above orbital plane
View from above orbital plane
View from above satellite
View from above satellite

Ground track
Ground track

The orbit data is extracted from the following two-line orbital elements,

1 22286U 92094A   14351.20562868  .00001654  00000-0  18434-3 0  5091
2 22286 082.5199 154.3302 0019781 269.9678 089.9272 14.86365973186797
Epoch (UTC): 17 December 2014 04:56:06
Eccentricity: 0.0019781
inclination: 82.5199°
perigee height: 595 km
apogee height: 623 km
right ascension of ascending node: 154.3302°
argument of perigee: 269.9678°
revolutions per day: 14.86365973
mean anomaly at epoch: 89.9272°
orbit number at epoch: 18679

The dashed part of the orbit path shows where the satellite is in the earth's shadow,  

DLR